GW3643 Weather Reports


Display with metric or nautical units.
time (UTC)temp
F
wind
direction
speed
MPH
gust
MPH
rain 1hr
in
rain 24hr
in
rain mn
in
humidity
%
barometer
mb
20260505050546 52 312 0.0 2.0 0.00 0.00 0.00 61 1011.9
20260505041555 51 0 0.0 3.0 0.00 0.00 0.00 63 1012.0
20260505041045 51 0 0.0 3.0 0.00 0.00 0.00 63 1012.0
20260505040545 51 0 0.0 4.0 0.00 0.00 0.00 63 1012.0
20260505040056 51 320 0.0 4.0 0.00 0.00 0.00 63 1012.0
20260505035544 51 309 0.0 3.0 0.00 0.00 0.00 63 1012.0
20260505035048 51 0 1.0 3.0 0.00 0.00 0.00 62 1012.0
20260505034553 52 298 0.0 3.0 0.00 0.00 0.00 62 1012.0
20260505034048 52 296 0.0 4.0 0.00 0.00 0.00 62 1011.9
20260505033547 52 0 1.0 4.0 0.00 0.00 0.00 61 1012.0
20260505033054 52 240 1.0 3.0 0.00 0.00 0.00 61 1011.9
20260505032544 52 0 0.0 3.0 0.00 0.00 0.00 60 1012.0
20260505032043 52 0 1.0 3.0 0.00 0.00 0.00 60 1011.9
20260505031553 53 322 1.0 3.0 0.00 0.00 0.00 59 1012.0
20260505031042 53 0 0.0 3.0 0.00 0.00 0.00 58 1011.9
20260505030542 53 306 0.0 7.0 0.00 0.00 0.00 57 1012.0
20260505030109 53 322 1.0 10.0 0.00 0.00 0.00 57 1012.0
20260505025544 53 0 3.0 10.0 0.00 0.00 0.00 58 1011.9
20260505025043 53 351 4.0 8.0 0.00 0.00 0.00 60 1011.9
20260505024558 53 324 2.0 11.0 0.00 0.00 0.00 60 1012.0
20260505024047 53 305 3.0 11.0 0.00 0.00 0.00 60 1012.1
20260505023544 52 317 5.0 11.0 0.00 0.00 0.00 59 1012.1
20260505023055 53 292 2.0 8.0 0.00 0.00 0.00 60 1012.2
20260505022544 53 305 2.0 8.0 0.00 0.00 0.00 59 1012.3
20260505022045 53 0 2.0 7.0 0.00 0.00 0.00 59 1012.3
20260505021554 53 293 1.0 7.0 0.00 0.00 0.00 59 1012.3
20260505021044 53 306 2.0 8.0 0.00 0.00 0.00 59 1012.3
20260505020544 53 311 2.0 8.0 0.00 0.00 0.00 59 1012.4
20260505020054 53 328 1.0 6.0 0.00 0.00 0.00 59 1012.4
20260505015543 53 265 1.0 6.0 0.00 0.00 0.00 59 1012.5
20260505015044 53 307 1.0 6.0 0.00 0.00 0.00 59 1012.5
20260505014607 53 324 1.0 7.0 0.00 0.00 0.00 59 1012.5
20260505014043 53 0 2.0 8.0 0.00 0.00 0.00 59 1012.5
20260505013544 53 311 3.0 8.0 0.00 0.00 0.00 59 1012.5
20260505013056 53 356 2.0 5.0 0.00 0.00 0.00 59 1012.5
20260505012544 53 298 1.0 9.0 0.00 0.00 0.00 59 1012.5
20260505012044 53 193 2.0 9.0 0.00 0.00 0.00 59 1012.5
20260505011555 53 311 2.0 9.0 0.00 0.00 0.00 59 1012.5
20260505011047 53 307 2.0 9.0 0.00 0.00 0.00 59 1012.6
20260505010544 53 238 2.0 10.0 0.00 0.00 0.00 59 1012.6
20260505010058 53 217 3.0 11.0 0.00 0.00 0.00 59 1012.7
20260505005547 53 326 4.0 11.0 0.00 0.00 0.00 58 1012.7
20260505005045 53 316 3.0 11.0 0.00 0.00 0.00 58 1012.8
20260505004553 54 292 3.0 11.0 0.00 0.00 0.00 58 1012.8
20260505004043 54 216 2.0 11.0 0.00 0.00 0.00 57 1012.7
20260505003544 54 297 3.0 11.0 0.00 0.00 0.00 57 1012.9
20260505003059 54 293 3.0 10.0 0.00 0.00 0.00 57 1012.8
20260505002544 54 224 1.0 12.0 0.00 0.00 0.00 57 1012.9
20260505002044 54 311 1.0 12.0 0.00 0.00 0.00 57 1012.9
20260505001931 54 320 1.0 12.0 0.00 0.00 0.00 57 1012.9
20260505001815 54 320 1.0 12.0 0.00 0.00 0.00 57 1012.9
20260505001044 54 26 2.0 12.0 0.00 0.00 0.00 58 1012.9
20260505000544 54 289 3.0 9.0 0.00 0.00 0.00 58 1013.0
20260504235547 55 290 3.0 11.0 0.00 0.00 0.00 57 1013.0
20260504235044 55 294 3.0 11.0 0.00 0.00 0.00 56 1012.9
20260504234557 55 357 2.0 15.0 0.00 0.00 0.00 56 1012.9
20260504234042 55 324 4.0 15.0 0.00 0.00 0.00 55 1012.9
20260504233545 55 18 3.0 11.0 0.00 0.00 0.00 55 1012.9
20260504233057 55 319 1.0 10.0 0.00 0.00 0.00 55 1012.9
20260504232542 55 324 2.0 15.0 0.00 0.00 0.00 54 1013.0
20260504232044 55 341 5.0 15.0 0.00 0.00 0.00 54 1012.9
20260504231559 55 0 2.0 8.0 0.00 0.00 0.00 54 1013.0
20260504231044 55 305 1.0 9.0 0.00 0.00 0.00 55 1013.0
20260504230544 55 295 3.0 9.0 0.00 0.00 0.00 55 1013.0
20260504230058 55 245 2.0 9.0 0.00 0.00 0.00 56 1012.9
20260504225542 55 0 2.0 9.0 0.00 0.00 0.00 56 1012.8
20260504225042 56 327 2.0 8.0 0.00 0.00 0.00 56 1012.8
20260504224551 56 236 2.0 7.0 0.00 0.00 0.00 56 1012.7
20260504224042 56 341 1.0 10.0 0.00 0.00 0.00 56 1012.8
20260504223544 56 331 3.0 10.0 0.00 0.00 0.00 55 1012.8
20260504223104 56 327 2.0 6.0 0.00 0.00 0.00 56 1012.8
20260504222542 56 296 2.0 7.0 0.00 0.00 0.00 56 1012.8
20260504222041 56 257 2.0 8.0 0.00 0.00 0.00 57 1012.8
20260504221555 56 290 1.0 8.0 0.00 0.00 0.00 57 1012.9
20260504221042 56 299 2.0 8.0 0.00 0.00 0.00 57 1012.9
20260504220542 56 255 1.0 8.0 0.00 0.00 0.00 57 1013.0
20260504215545 56 307 2.0 8.0 0.00 0.00 0.00 57 1013.0
20260504215041 56 351 1.0 8.0 0.00 0.00 0.00 57 1013.0
20260504214555 56 292 1.0 8.0 0.00 0.00 0.00 57 1013.1
20260504214045 56 290 1.0 8.0 0.00 0.00 0.00 57 1013.0
20260504213545 56 265 3.0 8.0 0.00 0.00 0.00 56 1013.1
20260504213050 56 205 1.0 5.0 0.00 0.00 0.00 56 1013.1
20260504212547 56 315 1.0 4.0 0.00 0.00 0.00 56 1013.1
20260504212042 56 0 0.0 3.0 0.00 0.00 0.00 56 1013.1
20260504211644 56 0 0.0 4.0 0.00 0.00 0.00 56 1013.1
20260504211043 56 0 0.0 4.0 0.00 0.00 0.00 55 1013.0
20260504210542 57 313 0.0 3.0 0.00 0.00 0.00 55 1013.1
20260504210055 57 279 0.0 3.0 0.00 0.00 0.00 54 1013.1
20260504205542 57 0 0.0 3.0 0.00 0.00 0.00 54 1013.1
20260504205042 57 0 0.0 4.0 0.00 0.00 0.00 53 1013.0
20260504204604 57 297 1.0 5.0 0.00 0.00 0.00 53 1012.9
20260504204044 57 288 1.0 5.0 0.00 0.00 0.00 53 1012.9
20260504203542 57 311 1.0 7.0 0.00 0.00 0.00 53 1012.9
20260504203053 57 295 1.0 7.0 0.00 0.00 0.00 53 1012.9
20260504202543 57 280 1.0 6.0 0.00 0.00 0.00 54 1012.8
20260504202042 57 283 1.0 9.0 0.00 0.00 0.00 54 1012.9
20260504201612 57 341 1.0 9.0 0.00 0.00 0.00 55 1012.8
20260504201042 57 300 2.0 9.0 0.00 0.00 0.00 54 1012.8
20260504200543 57 288 1.0 9.0 0.00 0.00 0.00 54 1012.7
20260504200056 57 148 2.0 9.0 0.00 0.00 0.00 55 1012.6
20260504195543 57 320 2.0 8.0 0.00 0.00 0.00 56 1012.5
20260504195042 57 293 0.0 7.0 0.00 0.00 0.00 56 1012.5
20260504194605 57 341 1.0 5.0 0.00 0.00 0.00 56 1012.4
20260504194042 58 297 1.0 4.0 0.00 0.00 0.00 56 1012.4
20260504193542 58 317 1.0 8.0 0.00 0.00 0.00 56 1012.3
20260504193049 58 0 1.0 8.0 0.00 0.00 0.00 56 1012.2
20260504192542 58 289 2.0 6.0 0.00 0.00 0.00 56 1012.2
20260504192042 58 336 1.0 6.0 0.00 0.00 0.00 56 1012.1
20260504191609 58 0 1.0 7.0 0.00 0.00 0.00 56 1012.0
20260504191042 59 323 2.0 7.0 0.00 0.00 0.00 55 1012.0
20260504190543 59 0 2.0 9.0 0.00 0.00 0.00 55 1011.9
20260504190107 59 341 3.0 9.0 0.00 0.00 0.00 54 1011.8
20260504185541 59 316 2.0 10.0 0.00 0.00 0.00 54 1011.9
20260504185043 59 309 3.0 10.0 0.00 0.00 0.00 54 1011.9
20260504184553 59 326 3.0 10.0 0.00 0.00 0.00 54 1011.8
20260504184042 59 332 2.0 13.0 0.00 0.00 0.00 53 1011.8
20260504183548 60 331 2.0 13.0 0.00 0.00 0.00 53 1011.8
20260504183052 60 270 3.0 12.0 0.00 0.00 0.00 53 1011.8
20260504182545 60 303 6.0 12.0 0.00 0.00 0.00 52 1011.8
20260504182042 61 320 4.0 11.0 0.00 0.00 0.00 52 1011.8
20260504181600 61 260 3.0 10.0 0.00 0.00 0.00 52 1011.8
20260504181042 61 303 3.0 12.0 0.00 0.00 0.00 51 1011.8
20260504180542 61 49 3.0 12.0 0.00 0.00 0.00 50 1011.6
20260504180053 62 235 5.0 12.0 0.00 0.00 0.00 50 1011.6
20260504175542 62 280 5.0 15.0 0.00 0.00 0.00 50 1011.6
20260504175042 62 22 4.0 15.0 0.00 0.00 0.00 49 1011.5
20260504174548 62 282 5.0 15.0 0.00 0.00 0.00 49 1011.5
20260504174042 62 20 6.0 15.0 0.00 0.00 0.00 48 1011.4
20260504173541 63 282 5.0 15.0 0.00 0.00 0.00 48 1011.5
20260504173055 63 351 4.0 15.0 0.00 0.00 0.00 47 1011.4
20260504172541 63 351 5.0 15.0 0.00 0.00 0.00 46 1011.4
20260504172042 63 8 4.0 12.0 0.00 0.00 0.00 46 1011.4
20260504171548 63 292 4.0 11.0 0.00 0.00 0.00 46 1011.3
20260504171042 62 315 3.0 11.0 0.00 0.00 0.00 47 1011.3
20260504170542 63 331 4.0 12.0 0.00 0.00 0.00 46 1011.3
20260504160146 64 265 5.0 18.0 0.00 0.00 0.00 43 1011.1
20260504151049 67 30 5.0 14.0 0.00 0.00 0.00 33 1010.9
20260504150544 67 252 5.0 14.0 0.00 0.00 0.00 33 1010.9
20260504141048 67 355 5.0 22.0 0.00 0.00 0.00 33 1011.2
20260504140548 67 155 7.0 22.0 0.00 0.00 0.00 35 1011.1
20260504130546 66 230 3.0 13.0 0.00 0.00 0.00 39 1011.5
20260504120104 66 313 4.0 15.0 0.00 0.00 0.00 44 1011.9
20260504110547 65 13 5.0 14.0 0.00 0.00 0.00 45 1012.3
20260504100545 62 201 2.0 11.0 0.00 0.00 0.00 55 1012.8
20260504081550 55 322 0.0 4.0 0.00 0.00 0.00 69 1012.6
20260504081045 55 300 0.0 4.0 0.00 0.00 0.00 69 1012.6
20260504080545 55 247 1.0 4.0 0.00 0.00 0.00 70 1012.6